Weather History for PADE - November, 2012

Change the Weather History Date:

Thursday, November 8, 2012

  Actual Average (PAOT) Record (PAOT)
Temperature  
Mean Temperature 8 °F 11 °F  
Max Temperature 19 °F 16 °F 37 °F (1979)
Min Temperature -4 °F - -17 °F (1900)
Degree Days  
Heating Degree Days 58 54  
Month to date heating degree days 416  
Since 1 July heating degree days 3098  
Cooling Degree Days 0    
Month to date cooling degree days  
Year to date cooling degree days  
Moisture  
Dew Point 8 °F    
Average Humidity 86    
Maximum Humidity 100    
Minimum Humidity 76    
Precipitation  
Precipitation 0.00 in 0.02 in 0.18 in (1952)
Month to date precipitation 0.19  
Year to date precipitation 9.66  
Snow  
Snow 0.00 in 0.30 in 2.20 in (2006)
Month to date snowfall 2.3  
Since 1 July snowfall 9.2  
Since 1 September snowfall 9.2  
Snow Depth -    
Sea Level Pressure  
Sea Level Pressure 30.23 in    
Wind  
Wind Speed 10 mph (East)    
Max Wind Speed 25 mph    
Max Gust Speed 29 mph    
Visibility 10 miles    
Events      
T = Trace of Precipitation, MM = Missing Value Source: NWS Daily Summary

Daily Weather History Graph

Daily Weather History Graph

Search for Another Location

Airport or City:

Trip Planner

Search our weather history database for the weather conditions in past years. The results will help you decide how hot, cold, wet, or windy it might be!

Date:

Astronomy

Nov. 08, 2012 Rise Set
Actual Time 10:15 AM AKST 4:53 PM AKST
Civil Twilight 9:12 AM AKST 5:56 PM AKST
Nautical Twilight 8:08 AM AKST 7:00 PM AKST
Astronomical Twilight 7:08 AM AKST 7:59 PM AKST
Moon 2:05 AM AKST (11/8) 3:43 PM AKST (11/8)
Length of Visible Light 8h 43m
Length of Day
6h 37m
Waning Crescent, 31% of the Moon is Illuminated
Nov 8
Waning Crescent
Nov 13
New
Nov 20
First Quarter
Nov 28
Full
Dec 6
Last Quarter

Hourly Weather History & Observations

Time (AKST) Temp. Windchill Dew Point Humidity Pressure Visibility Wind Dir Wind Speed Gust Speed Precip Events Conditions
12:05 AM 19.4 °F 9.5 °F 17.6 °F 93% 30.39 in 1.8 mi ESE 8.1 mph - N/A   Overcast
12:26 AM 17.6 °F - 17.6 °F 100% 30.39 in 3.0 mi Calm Calm - N/A   Overcast
12:49 AM 17.6 °F 9.3 °F 15.8 °F 93% 30.39 in 10.0 mi East 5.8 mph - N/A   Mostly Cloudy
12:53 AM 18.0 °F 9.8 °F 16.0 °F 92% 30.39 in 10.0 mi East 5.8 mph - N/A   Mostly Cloudy
1:01 AM 17.6 °F 9.3 °F 15.8 °F 93% 30.39 in 10.0 mi East 5.8 mph - N/A   Mostly Cloudy
1:28 AM 19.4 °F 14.3 °F 17.6 °F 93% 30.38 in 10.0 mi SSE 3.5 mph - N/A   Overcast
1:53 AM 19.9 °F 11.1 °F 17.1 °F 89% 30.38 in 10.0 mi East 6.9 mph - N/A   Overcast
3:16 AM 19.4 °F 8.6 °F 17.6 °F 93% 30.36 in 10.0 mi East 9.2 mph - N/A   Overcast
3:53 AM 19.0 °F 7.5 °F 17.1 °F 92% 30.35 in 10.0 mi East 10.4 mph - N/A   Overcast
4:53 AM 19.9 °F 5.7 °F 17.1 °F 89% 30.32 in 10.0 mi East 16.1 mph - N/A   Overcast
5:53 AM 18.0 °F 2.2 °F 15.1 °F 88% 30.30 in 10.0 mi ENE 18.4 mph - N/A   Overcast
6:49 AM 15.8 °F -1.1 °F 12.2 °F 86% 30.28 in 10.0 mi ENE 19.6 mph 25.3 mph N/A   Scattered Clouds
6:53 AM 16.0 °F -1.3 °F 12.9 °F 88% 30.28 in 10.0 mi ENE 20.7 mph 25.3 mph N/A   Scattered Clouds
7:53 AM 15.1 °F -2.5 °F 12.0 °F 88% 30.25 in 10.0 mi ENE 20.7 mph - N/A   Clear
8:53 AM 12.0 °F -5.6 °F 8.1 °F 84% 30.25 in 10.0 mi East 18.4 mph - N/A   Clear
9:53 AM 12.0 °F -6.9 °F 8.1 °F 84% 30.23 in 10.0 mi East 21.9 mph 27.6 mph N/A   Partly Cloudy
10:53 AM 12.0 °F -5.6 °F 7.0 °F 80% 30.21 in 10.0 mi East 18.4 mph - N/A   Clear
11:53 AM 10.9 °F -9.6 °F 6.1 °F 81% 30.20 in 10.0 mi ENE 25.3 mph - N/A   Clear
12:53 PM 12.0 °F -6.0 °F 7.0 °F 80% 30.19 in 10.0 mi ENE 19.6 mph - N/A   Clear
1:53 PM 12.9 °F -4.4 °F 7.0 °F 77% 30.17 in 10.0 mi East 18.4 mph - N/A   Clear
2:53 PM 12.0 °F -6.5 °F 6.1 °F 77% 30.14 in 10.0 mi East 20.7 mph 28.8 mph N/A   Clear
3:53 PM 12.0 °F -3.4 °F 6.1 °F 77% 30.12 in 10.0 mi ENE 13.8 mph - N/A   Clear
4:53 PM 5.0 °F -2.1 °F -0.0 °F 80% 30.10 in 10.0 mi SE 3.5 mph - N/A   Clear
5:53 PM 10.0 °F -8.6 °F 3.9 °F 76% 30.09 in 10.0 mi ENE 19.6 mph 25.3 mph N/A   Clear
6:53 PM 9.0 °F -5.1 °F 3.0 °F 77% 30.09 in 10.0 mi ENE 10.4 mph - N/A   Clear
7:53 PM 1.9 °F -7.6 °F -0.0 °F 91% 30.07 in 10.0 mi South 4.6 mph - N/A   Clear
8:53 PM -4.0 °F -16.3 °F -8.0 °F 83% 30.07 in 10.0 mi South 5.8 mph - N/A   Clear
9:53 PM -4.0 °F -12.4 °F -8.0 °F 83% 30.06 in 10.0 mi SSW 3.5 mph - N/A   Clear
10:53 PM -2.9 °F -16.5 °F -8.0 °F 79% 30.04 in 10.0 mi SSW 6.9 mph - N/A   Clear
11:53 PM -4.0 °F -16.3 °F -8.0 °F 83% 30.04 in 10.0 mi SSW 5.8 mph - N/A   Clear